Location: Eaton
(41.3139°N, 82.0207°W)
Time: 11:17:40
(UTC+00:00)

Terra - Pass Details

Date: 17 June 2021
Orbit: 701 x 703 km, 98.2° (Epoch: 27 July)

Event Time Altitude Azimuth Distance (km) Brightness Sun altitude
Exits shadow 03:41:20 39° 195° (SSW) 1,050 2.3 -20.7°
Maximum altitude 03:42:57 63° 259° (W) 789 2.1 -20.8°
Drops below altitude 10° 03:47:41 10° 340° (NNW) 2,179 5.5 -21.2°
Sets 03:49:58 0° 344° (NNW) 3,102 6.6 -21.3°
